Location: Wien
(48.2082°N, 16.3738°E)
Time: 07:39:08
(UTC+02:00)

MOZHAYETS 4 - Pass Details

Date: 26 March 2019
Orbit: 663 x 680 km, 98.0° (Epoch: 25 April)

Event Time Altitude Azimuth Distance (km) Brightness Sun altitude
Exits shadow 00:48:50 16° 24° (NNE) 1,757 10.5 -38.7°
Drops below altitude 10° 00:50:06 10° 12° (NNE) 2,115 11.0 -38.6°
Sets 00:52:44 0° 358° (N) 3,037 11.9 -38.5°
